Location: Coupvray
(48.8929°N, 2.7967°E)
Time: 10:55:06
(UTC+00:00)

Landsat 4 - Pass Details

Date: 14 July 2020
Orbit: 506 x 522 km, 98.2° (Epoch: 06 August)

Event Time Altitude Azimuth Distance (km) Brightness Sun altitude
Rises 00:04:02 0° 14° (NNE) 2,659 8.8 -19.4°
Reaches altitude 10° 00:06:09 10° 15° (NNE) 1,768 7.6 -19.4°
Maximum altitude 00:09:58 84° 105° (ESE) 532 3.6 -19.4°
Enters shadow 00:10:41 57° 186° (S) 620 3.7 -19.4°
